DW2891 Weather Reports


Display with metric or nautical units.
time (UTC)temp
F
wind
direction
speed
MPH
gust
MPH
rain 1hr
in
rain 24hr
in
rain mn
in
humidity
%
barometer
mb
20260901064605 59 85 0.0 0.0 0.00 0.00 0.00 85 1008.1
20260901064105 59 85 0.0 0.0 0.00 0.00 0.00 85 1008.1
20260901063605 59 85 0.0 0.0 0.00 0.00 0.00 85 1008.2
20260901062104 59 85 0.0 0.0 0.00 0.00 0.00 85 1008.1
20260901061604 59 85 0.0 0.0 0.00 0.00 0.00 84 1008.1
20260901061105 60 85 0.0 0.0 0.00 0.00 0.00 84 1008.0
20260901060604 60 85 0.0 0.0 0.00 0.00 0.00 84 1008.1
20260901060104 60 85 0.0 0.0 0.00 0.00 0.00 84 1008.1
20260901055104 60 85 0.0 0.0 0.00 0.00 0.00 83 1008.2
20260901054104 60 85 0.0 0.0 0.00 0.00 0.00 83 1008.1
20260901053604 60 85 0.0 0.0 0.00 0.00 0.00 82 1008.1
20260901051604 60 85 0.0 0.0 0.00 0.00 0.00 81 1008.1
20260901051105 61 85 0.0 0.0 0.00 0.00 0.00 81 1008.1
20260901050605 61 85 0.0 0.0 0.00 0.00 0.00 80 1008.2
20260901050104 61 85 0.0 0.0 0.00 0.00 0.00 80 1008.2
20260901045604 61 85 0.0 0.0 0.00 0.00 0.00 81 1008.3
20260901045104 61 85 0.0 0.0 0.00 0.00 0.00 80 1008.3
20260901044105 61 85 0.0 0.0 0.00 0.00 0.00 80 1008.4
20260901043604 61 85 0.0 0.0 0.00 0.00 0.00 80 1008.4
20260901043104 61 85 0.0 0.0 0.00 0.00 0.00 80 1008.4
20260901042604 62 85 0.0 0.0 0.00 0.00 0.00 80 1008.4
20260901042105 62 85 0.0 0.0 0.00 0.00 0.00 80 1008.5
20260901041605 62 85 0.0 0.0 0.00 0.00 0.00 80 1008.5
20260901041105 62 85 0.0 0.0 0.00 0.00 0.00 80 1008.6
20260901040604 62 85 0.0 0.0 0.00 0.00 0.00 80 1008.6
20260901040104 62 85 0.0 0.0 0.00 0.00 0.00 80 1008.6
20260901035604 63 85 0.0 0.0 0.00 0.00 0.00 80 1008.6
20260901035105 63 85 0.0 0.0 0.00 0.00 0.00 80 1008.5
20260901034105 63 85 0.0 0.0 0.00 0.00 0.00 80 1008.5
20260901033605 64 85 0.0 0.0 0.00 0.00 0.00 80 1008.5
20260901033105 64 85 0.0 0.0 0.00 0.00 0.00 79 1008.5
20260901032604 64 85 0.0 0.0 0.00 0.00 0.00 78 1008.5
20260901031605 65 85 0.0 0.0 0.00 0.00 0.00 76 1008.5
20260901031104 65 85 0.0 0.0 0.00 0.00 0.00 76 1008.6
20260901030604 65 85 0.0 0.0 0.00 0.00 0.00 75 1008.5
20260901030105 65 85 0.0 0.0 0.00 0.00 0.00 74 1008.6
20260901025605 65 85 0.0 0.0 0.00 0.00 0.00 74 1008.6
20260901025104 66 85 0.0 0.0 0.00 0.00 0.00 74 1008.5
20260901024604 66 85 0.0 0.0 0.00 0.00 0.00 75 1008.6
20260901024104 66 85 0.0 0.0 0.00 0.00 0.00 74 1008.6
20260901023605 66 85 0.0 0.0 0.00 0.00 0.00 73 1008.6
20260901022105 66 85 0.0 0.0 0.00 0.00 0.00 74 1008.6
20260901021104 66 85 0.0 0.0 0.00 0.00 0.00 76 1008.7
20260901020604 66 85 0.0 0.0 0.00 0.00 0.00 76 1008.7
20260901020104 66 85 0.0 0.0 0.00 0.00 0.00 76 1008.8
20260901015105 66 85 0.0 0.0 0.00 0.00 0.00 75 1008.8
20260901014605 67 85 0.0 0.0 0.00 0.00 0.00 72 1008.9
20260901014104 67 85 0.0 0.0 0.00 0.00 0.00 74 1008.9
20260901013604 67 85 0.0 0.0 0.00 0.00 0.00 73 1009.0
20260901013106 67 85 0.0 0.0 0.00 0.00 0.00 73 1009.2
20260901012604 68 85 0.0 0.0 0.00 0.00 0.00 70 1009.2
20260901012104 68 85 0.0 0.0 0.00 0.00 0.00 70 1009.2
20260901010104 68 61 0.0 0.0 0.00 0.00 0.00 71 1009.4
20260901005604 68 61 0.0 0.0 0.00 0.00 0.00 71 1009.5
20260901005105 67 61 0.0 0.0 0.00 0.00 0.00 71 1009.4
20260901004604 67 61 0.0 0.0 0.00 0.00 0.00 72 1009.5
20260901004105 67 61 0.0 0.0 0.00 0.00 0.00 70 1009.5
20260901003604 68 61 0.0 0.0 0.00 0.00 0.00 72 1009.5
20260901002104 68 61 0.0 0.0 0.00 0.00 0.00 70 1009.9
20260901001104 68 61 0.0 0.0 0.00 0.00 0.00 69 1009.9
20260901000604 68 61 0.0 0.0 0.00 0.00 0.00 69 1010.0
20260901000104 68 61 0.0 0.0 0.00 0.00 0.00 67 1010.0
20260831235604 68 61 0.0 0.0 0.00 0.00 0.00 69 1010.1
20260831235104 68 61 0.0 0.0 0.00 0.00 0.00 66 1010.1
20260831234604 68 61 0.0 0.0 0.00 0.00 0.00 67 1010.1
20260831234105 68 61 0.0 2.0 0.00 0.00 0.00 66 1010.2
20260831233604 69 58 0.0 0.0 0.00 0.00 0.00 67 1010.2
20260831233104 69 58 0.0 2.0 0.00 0.00 0.00 66 1010.2
20260831232604 68 343 0.0 9.0 0.00 0.00 0.00 67 1010.2
20260831232104 68 29 0.0 0.0 0.00 0.00 0.00 70 1010.2
20260831231604 68 29 0.0 0.0 0.00 0.00 0.00 67 1010.2
20260831230104 68 57 1.0 6.0 0.00 0.00 0.00 67 1010.5
20260831225604 68 261 1.0 8.0 0.00 0.00 0.00 68 1010.6
20260831225104 68 281 0.0 0.0 0.00 0.00 0.00 69 1010.6
20260831224604 67 292 0.0 2.0 0.00 0.00 0.00 71 1010.6
20260831223604 67 279 0.0 2.0 0.00 0.00 0.00 69 1010.8
20260831223104 68 133 0.0 0.0 0.00 0.00 0.00 68 1010.9
20260831222604 67 133 1.0 5.0 0.00 0.00 0.00 69 1011.0
20260831221104 68 262 0.0 8.0 0.00 0.00 0.00 68 1011.1
20260831220604 68 267 0.0 2.0 0.00 0.00 0.00 69 1011.2
20260831220104 67 250 0.0 3.0 0.00 0.00 0.00 70 1011.3
20260831215105 68 269 1.0 2.0 0.00 0.00 0.00 69 1011.3
20260831213604 68 50 1.0 3.0 0.00 0.00 0.00 68 1011.5
20260831213104 68 69 0.0 5.0 0.00 0.00 0.00 69 1011.5
20260831212604 68 69 0.0 1.0 0.00 0.00 0.00 68 1011.5
20260831212104 68 328 0.0 0.0 0.00 0.00 0.00 70 1011.5
20260831211604 67 285 0.0 6.0 0.00 0.00 0.00 71 1011.6
20260831211104 67 297 5.0 9.0 0.00 0.00 0.00 70 1011.7
20260831210104 68 350 0.0 1.0 0.00 0.00 0.00 69 1011.7
20260831205604 68 350 0.0 0.0 0.00 0.00 0.00 70 1011.7
20260831205104 67 278 0.0 0.0 0.00 0.00 0.00 72 1011.7
20260831204604 67 278 0.0 2.0 0.00 0.00 0.00 72 1011.8
20260831204104 67 279 1.0 6.0 0.00 0.00 0.00 70 1011.8
20260831203105 67 40 0.0 1.0 0.00 0.00 0.00 72 1011.9
20260831202604 67 40 0.0 0.0 0.00 0.00 0.00 72 1011.9
20260831202104 67 40 0.0 0.0 0.00 0.00 0.00 72 1011.9
20260831201604 66 40 1.0 3.0 0.00 0.00 0.00 72 1012.1
20260831201104 67 287 0.0 6.0 0.00 0.00 0.00 73 1012.2
20260831200604 67 299 0.0 6.0 0.00 0.00 0.00 71 1012.2
20260831200104 67 308 0.0 0.0 0.00 0.00 0.00 72 1012.3
20260831195604 67 308 0.0 0.0 0.00 0.00 0.00 72 1012.4
20260831195104 66 306 0.0 2.0 0.00 0.00 0.00 74 1012.4
20260831194604 66 306 0.0 0.0 0.00 0.00 0.00 74 1012.4
20260831194104 66 306 0.0 6.0 0.00 0.00 0.00 75 1012.5
20260831193604 66 55 0.0 2.0 0.00 0.00 0.00 74 1012.6
20260831193104 65 54 1.0 3.0 0.00 0.00 0.00 76 1012.7
20260831192604 65 51 0.0 0.0 0.00 0.00 0.00 75 1012.8
20260831192105 65 51 0.0 1.0 0.00 0.00 0.00 75 1013.0
20260831191603 65 52 0.0 0.0 0.00 0.00 0.00 75 1013.1
20260831191104 65 52 0.0 0.0 0.00 0.00 0.00 75 1013.2
20260831190604 65 52 0.0 0.0 0.00 0.00 0.00 76 1013.3
20260831190104 65 52 0.0 0.0 0.00 0.00 0.00 79 1013.4
20260831185604 64 52 0.0 0.0 0.00 0.00 0.00 79 1013.4
20260831185104 64 52 0.0 0.0 0.00 0.00 0.00 79 1013.5
20260831184604 64 52 0.0 0.0 0.00 0.00 0.00 81 1013.5
20260831184104 63 52 0.0 0.0 0.00 0.00 0.00 79 1013.5
20260831183604 63 52 0.0 0.0 0.00 0.00 0.00 80 1013.6
20260831183104 63 52 0.0 0.0 0.00 0.00 0.00 80 1013.7
20260831182605 63 52 0.0 0.0 0.00 0.00 0.00 79 1013.8
20260831182103 63 52 0.0 0.0 0.00 0.00 0.00 80 1013.7
20260831181105 63 52 0.0 0.0 0.00 0.00 0.00 80 1013.8
20260831180604 63 52 0.0 0.0 0.00 0.00 0.00 80 1013.7
20260831180104 63 52 0.0 0.0 0.00 0.00 0.00 80 1013.7
20260831175604 63 52 0.0 0.0 0.00 0.00 0.00 81 1013.7
20260831175104 63 52 0.0 0.0 0.00 0.00 0.00 80 1013.7
20260831174604 63 52 0.0 0.0 0.00 0.00 0.00 80 1013.7
20260831174105 63 52 0.0 0.0 0.00 0.00 0.00 77 1013.7
20260831173604 63 52 0.0 0.0 0.00 0.00 0.00 78 1013.8
20260831173104 63 52 0.0 0.0 0.00 0.00 0.00 79 1013.8
20260831172604 63 52 0.0 0.0 0.00 0.00 0.00 79 1013.8
20260831171604 63 52 0.0 0.0 0.00 0.00 0.00 81 1013.9
20260831171104 63 52 0.0 0.0 0.00 0.00 0.00 80 1013.9
20260831170604 63 52 0.0 0.0 0.00 0.00 0.00 79 1014.0
20260831170103 62 52 0.0 0.0 0.00 0.00 0.00 80 1014.0
20260831165604 62 52 0.0 0.0 0.00 0.00 0.00 82 1014.0
20260831165104 62 52 0.0 0.0 0.00 0.00 0.00 83 1013.9
20260831164104 61 52 0.0 0.0 0.00 0.00 0.00 84 1013.9
20260831163603 61 52 0.0 0.0 0.00 0.00 0.00 85 1013.9
20260831163104 61 52 0.0 0.0 0.00 0.00 0.00 86 1014.0
20260831162604 61 52 0.0 0.0 0.00 0.00 0.00 87 1014.1
20260831161604 61 52 0.0 0.0 0.00 0.00 0.00 87 1014.2
20260831161104 61 52 0.0 0.0 0.00 0.00 0.00 87 1014.2
20260831160604 60 52 0.0 0.0 0.00 0.00 0.00 88 1014.2
20260831160104 60 52 0.0 0.0 0.00 0.00 0.00 89 1014.2
20260831155604 60 52 0.0 0.0 0.00 0.00 0.00 89 1014.2
20260831155104 59 52 0.0 0.0 0.00 0.00 0.00 90 1014.2
20260831154604 59 52 0.0 0.0 0.00 0.00 0.00 90 1014.2
20260831154105 59 52 0.0 0.0 0.00 0.00 0.00 91 1014.3
20260831153604 58 52 0.0 0.0 0.00 0.00 0.00 91 1014.3
20260831153104 58 52 0.0 0.0 0.00 0.00 0.00 91 1014.4
20260831152605 58 52 0.0 0.0 0.00 0.00 0.00 91 1014.5
20260831152105 57 52 0.0 0.0 0.00 0.00 0.00 91 1014.5
20260831151604 57 52 0.0 0.0 0.00 0.00 0.00 91 1014.5
20260831151104 57 52 0.0 0.0 0.00 0.00 0.00 91 1014.5
20260831150604 57 52 0.0 0.0 0.00 0.00 0.00 91 1014.5
20260831145604 56 52 0.0 0.0 0.00 0.00 0.00 91 1014.5
20260831145103 56 52 0.0 0.0 0.00 0.00 0.00 91 1014.4
20260831144603 56 52 0.0 0.0 0.00 0.00 0.00 91 1014.5
20260831144104 56 52 0.0 0.0 0.00 0.00 0.00 91 1014.4
20260831143604 56 52 0.0 0.0 0.00 0.00 0.00 91 1014.4
20260831143104 56 52 0.0 0.0 0.00 0.00 0.00 91 1014.4
20260831142105 56 52 0.0 0.0 0.00 0.00 0.00 91 1014.4
20260831141603 56 52 0.0 0.0 0.00 0.00 0.00 91 1014.5
20260831141104 56 52 0.0 0.0 0.00 0.00 0.00 91 1014.4
20260831140604 56 52 0.0 0.0 0.00 0.00 0.00 91 1014.5
20260831140105 56 52 0.0 0.0 0.00 0.00 0.00 91 1014.4
20260831135604 56 52 0.0 0.0 0.00 0.00 0.00 91 1014.4
20260831135104 56 52 0.0 0.0 0.00 0.00 0.00 91 1014.5
20260831134604 56 52 0.0 0.0 0.00 0.00 0.00 91 1014.5
20260831134105 56 52 0.0 0.0 0.00 0.00 0.00 90 1014.5
20260831133604 56 52 0.0 0.0 0.00 0.00 0.00 90 1014.5
20260831132604 56 52 0.0 0.0 0.00 0.00 0.00 90 1014.5
20260831132105 55 52 0.0 0.0 0.00 0.00 0.00 90 1014.5
20260831131604 55 52 0.0 0.0 0.00 0.00 0.00 90 1014.5
20260831131104 55 52 0.0 0.0 0.00 0.00 0.00 90 1014.5
20260831130603 55 52 0.0 0.0 0.00 0.00 0.00 90 1014.6
20260831130104 55 52 0.0 0.0 0.00 0.00 0.00 90 1014.7
20260831125604 55 52 0.0 0.0 0.00 0.00 0.00 90 1014.7
20260831125104 55 52 0.0 0.0 0.00 0.00 0.00 90 1014.8
20260831124604 55 52 0.0 0.0 0.00 0.00 0.00 90 1014.8
20260831124104 56 52 0.0 0.0 0.00 0.00 0.00 90 1014.8
20260831123104 56 52 0.0 0.0 0.00 0.00 0.00 89 1014.7
20260831122104 56 52 0.0 0.0 0.00 0.00 0.00 89 1014.8
20260831121104 56 52 0.0 0.0 0.00 0.00 0.00 89 1014.9
20260831120604 56 52 0.0 0.0 0.00 0.00 0.00 89 1014.8
20260831115104 56 52 0.0 0.0 0.00 0.00 0.00 89 1014.9
20260831114604 56 52 0.0 0.0 0.00 0.00 0.00 89 1015.0
20260831114104 56 52 0.0 0.0 0.00 0.00 0.00 89 1015.0
20260831113603 56 52 0.0 0.0 0.00 0.00 0.00 89 1015.1
20260831113104 56 52 0.0 0.0 0.00 0.00 0.00 88 1015.2
20260831112603 56 52 0.0 0.0 0.00 0.00 0.00 88 1015.3
20260831112104 56 52 0.0 0.0 0.00 0.00 0.00 88 1015.3
20260831111604 57 52 0.0 0.0 0.00 0.00 0.00 88 1015.3
20260831111104 57 52 0.0 0.0 0.00 0.00 0.00 88 1015.4
20260831110604 57 52 0.0 0.0 0.00 0.00 0.00 88 1015.3
20260831110103 57 52 0.0 0.0 0.00 0.00 0.00 88 1015.3
20260831105604 57 52 0.0 0.0 0.00 0.00 0.00 89 1015.2
20260831104604 57 52 0.0 0.0 0.00 0.00 0.00 89 1015.4
20260831104104 57 52 0.0 0.0 0.00 0.00 0.00 89 1015.4
20260831103604 57 52 0.0 0.0 0.00 0.00 0.00 89 1015.4
20260831103104 57 52 0.0 0.0 0.00 0.00 0.00 89 1015.5
20260831102604 57 52 0.0 0.0 0.00 0.00 0.00 89 1015.5
20260831102103 58 52 0.0 0.0 0.00 0.00 0.00 89 1015.6
20260831101604 58 52 0.0 0.0 0.00 0.00 0.00 89 1015.7
20260831101104 58 52 0.0 0.0 0.00 0.00 0.00 89 1015.7
20260831100103 58 52 0.0 0.0 0.00 0.00 0.00 89 1015.7
20260831095604 58 52 0.0 0.0 0.00 0.00 0.00 89 1015.8
20260831095104 58 52 0.0 0.0 0.00 0.00 0.00 89 1015.9
20260831094103 58 52 0.0 0.0 0.00 0.00 0.00 89 1016.0
20260831092604 58 52 0.0 0.0 0.00 0.00 0.00 89 1016.1
20260831091603 58 52 0.0 0.0 0.00 0.00 0.00 89 1016.2
20260831091104 58 52 0.0 0.0 0.00 0.00 0.00 89 1016.4
20260831090603 58 52 0.0 0.0 0.00 0.00 0.00 89 1016.4
20260831090104 58 52 0.0 0.0 0.00 0.00 0.00 89 1016.4
20260831085604 58 52 0.0 0.0 0.00 0.00 0.00 89 1016.4
20260831085105 58 52 0.0 0.0 0.00 0.00 0.00 89 1016.4
20260831084603 58 52 0.0 0.0 0.00 0.00 0.00 89 1016.5
20260831084104 58 52 0.0 0.0 0.00 0.00 0.00 89 1016.5
20260831083603 58 52 0.0 0.0 0.00 0.00 0.00 89 1016.6
20260831083104 58 52 0.0 0.0 0.00 0.00 0.00 89 1016.6
20260831082603 58 52 0.0 0.0 0.00 0.00 0.00 89 1016.7
20260831082104 58 52 0.0 0.0 0.00 0.00 0.00 89 1016.6
20260831081604 58 52 0.0 0.0 0.00 0.00 0.00 89 1016.7
20260831081104 58 52 0.0 0.0 0.00 0.00 0.00 89 1016.7
20260831080604 58 52 0.0 0.0 0.00 0.00 0.00 89 1016.8
20260831075604 58 52 0.0 0.0 0.00 0.00 0.00 89 1016.9
20260831075105 58 52 0.0 0.0 0.00 0.00 0.00 89 1016.8
20260831074604 58 52 0.0 0.0 0.00 0.00 0.00 89 1016.7
20260831074103 58 52 0.0 0.0 0.00 0.00 0.00 89 1016.9
20260831073603 58 52 0.0 0.0 0.00 0.00 0.00 89 1016.9
20260831073104 58 52 0.0 0.0 0.00 0.00 0.00 89 1016.8
20260831072603 58 52 0.0 0.0 0.00 0.00 0.00 89 1016.9
20260831072104 58 52 0.0 0.0 0.00 0.00 0.00 88 1017.0
20260831071104 58 52 0.0 0.0 0.00 0.00 0.00 89 1017.1
20260831070603 58 52 0.0 0.0 0.00 0.00 0.00 88 1017.0
20260831065603 58 52 0.0 0.0 0.00 0.00 0.00 88 1017.0